カタログに戻る

STARLINK-4684

運用中通信VLEO
NORAD 53595·PAYLOAD·🇺🇸 United States

打ち上げ Aug 28, 2022 から Cape Canaveral Space Force Station

Loading…

次のパス (今後24時間)

TLE

最新Source: CelesTrak SupGP

元期: Sep 14, 2026, 22:00 UTC

1 53595C 22104H   26257.91715278  .00011135  00000+0  35816-3 0  2571
2 53595  53.1580 101.7956 0001350  84.5539   6.4666 15.31687425    14

AllMySatでSTARLINK-4684をリアルタイム追跡

Download on the App Store